Miscellaneous Local Product
Issued by NWS Hastings, NE

Home | Current Version | Previous Version | Text Only | Print | Product List | Glossary On
Versions: 1 2 3 4 5 6 7 8 9 10 11 12 13 14 15 16 17 18 19 20 21 22 23 24 25 26 27 28 29 30 31 32 33 34 35 36 37 38 39 40 41 42 43 44 45 46 47 48 49 50
000
AXUS43 KGID 240102
MISGRI

GID CWA HOURLY WEATHER ROUNDUP
NATIONAL WEATHER SERVICE HASTINGS NE
800 PM CDT TUE SEP 23 2014

NOTE: "FAIR" INDICATES FEW OR NO CLOUDS BELOW 12,000 FEET WITH NO
SIGNIFICANT WEATHER AND/OR OBSTRUCTIONS TO VISIBILITY.

...SOUTH CENTRAL NEBRASKA...

CITY           SKY/WX    TMP DP  RH WIND       PRES   REMARKS
GRAND ISLAND   MOCLDY    64  57  78 SE15      30.02R
HASTINGS       PTCLDY    64  55  72 SE14      30.01S
KEARNEY        PTCLDY    64  57  77 E10       30.01R
ORD            LGT RAIN  62  59  90 SE17      29.96S
YORK           CLEAR     61  55  82 S12G17    30.04S
AURORA         PTCLDY    62  57  82 SE10      30.03R
LEXINGTON      CLOUDY    71  60  68 SE13      29.96S
HOLDREGE       PTCLDY    66  58  76 SE9       29.99R
HEBRON         PTCLDY    63  55  75 SE12G18   30.04R

...NEBRASKA PANHANDLE...

CITY           SKY/WX    TMP DP  RH WIND       PRES   REMARKS
CHADRON        MOCLDY    67  55  65 S6        29.96R
ALLIANCE       MOCLDY    71  50  47 N5        30.01R
SCOTTSBLUFF    MOCLDY    74  48  39 W5        30.02R
SIDNEY         MOCLDY    70  49  47 NW7       30.05R

...WESTERN AND NORTH CENTRAL NEBRASKA...

CITY           SKY/WX    TMP DP  RH WIND       PRES   REMARKS
VALENTINE      CLEAR     68  58  70 SE7       29.92R
AINSWORTH      PTCLDY    63  59  86 SE7       29.94R
ONEILL         RAIN      63  60  93 S13       30.00R
BROKEN BOW     CLOUDY    67  62  84 S7        29.97S THUNDER
IMPERIAL       PTCLDY    74  47  38 W7        29.97R
NORTH PLATTE   PTCLDY    69  59  70 N5        29.94R
MCCOOK         CLEAR     75  58  55 S6        29.94S

...EASTERN NEBRASKA...

CITY           SKY/WX    TMP DP  RH WIND       PRES   REMARKS
NORFOLK        CLOUDY    62  56  80 S16       30.04R
SO SIOUX CITY  CLOUDY    65  52  62 S12G21    30.07R
TEKAMAH        MOCLDY    65  53  65 S14       30.08S
COLUMBUS       CLOUDY    61  54  77 SE8       30.06S
ALBION         CLOUDY    63  55  77 SE13      30.02S
OMAHA EPPLEY   CLOUDY    65  53  65 SE18      30.09S
OFFUTT AFB     CLOUDY    64  59  85 SE14      30.09F
MILLARD        CLOUDY    64  56  75 SE13G18   30.09R
LINCOLN        CLOUDY    65  53  65 S17       30.07R
NEBRASKA CITY  CLOUDY    62  55  79 SE13G21   30.10S
BEATRICE       CLOUDY    63  57  81 SE16G25   30.06R
FALLS CITY     LGT RAIN  61  61 100 SE10      30.12F

...NORTHERN KANSAS...

CITY           SKY/WX    TMP DP  RH WIND       PRES   REMARKS
GOODLAND       MOCLDY    68  60  75 CALM      30.03S
HILL CITY      PTCLDY    75  59  57 S12G22    29.97S
NORTON         CLEAR     75  57  53 SE8       29.95R
PHILLIPSBURG   CLEAR     73  59  60 E7        29.97R
SMITH CENTER   CLEAR     66  59  77 E12       29.99S
BELOIT         CLEAR     70  57  64 SE10      29.99R
RUSSELL        CLOUDY    73  57  57 SE17G24   29.96F
CONCORDIA      CLEAR     64  59  83 SE15G23   30.02S
SALINA         CLOUDY    69  58  67 SE12      30.03R
TOPEKA         LGT RAIN  67  59  75 SE10      30.11R



USA.gov is the U.S. government's official web portal to all federal, state and local government web resources and services.